Location: Unspecified
(0.0000°N, 0.0000°E)
Time: 16:32:37
(UTC+00:00)

Envisat - Pass Details

Date: 16 December 2018
Orbit: 764 x 766 km, 98.2° (Epoch: 13 December)

Event Time Altitude Azimuth Distance (km) Brightness Sun altitude
Rises 19:26:36 0° 174° (S) 3,230 6.5 -20.8°
Reaches altitude 10° 19:28:56 10° 176° (S) 2,302 5.7 -21.3°
Maximum altitude 19:33:57 66° 258° (WSW) 835 3.3 -22.4°
Drops below altitude 10° 19:38:58 10° 340° (NNW) 2,291 5.4 -23.6°
Sets 19:41:16 0° 343° (NNW) 3,214 6.1 -24.1°
